Location: Killam
(52.7910°N, 111.8608°W)
Time: 10:36:08
(UTC+00:00)

FENGYUN 1C DEB - Pass Details

Date: 04 June 2024
Orbit: 795 x 992 km, 98.4° (Epoch: 16 June)

Event Time Altitude Azimuth Distance (km) Brightness Sun altitude
Rises 05:58:23 0° 15° (NNE) 3,348 ? -12.3°
Reaches altitude 10° 06:00:41 10° 16° (NNE) 2,429 ? -12.5°
Maximum altitude 06:06:05 83° 104° (ESE) 859 ? -12.7°
Enters shadow 06:11:10 13° 194° (SSW) 2,322 ? -13.0°
